Ottumwa, IA

8:12 PM CDT on July 23, 2017 (GMT -0500)
Ottumwa Industrial

Weather History for KOTM - November, 2011

Change the Weather History Date:

Thursday, November 3, 2011

  Actual Average Record
Temperature  
Mean Temperature 40 °F 46 °F  
Max Temperature 51 °F 56 °F 77 °F (1978)
Min Temperature 28 °F 35 °F 8 °F (1991)
Degree Days  
Heating Degree Days 25 19  
Month to date heating degree days 46 57  
Since 1 July heating degree days 549 581  
Cooling Degree Days 0 0  
Month to date cooling degree days 0 0  
Year to date cooling degree days 1111 938  
Moisture  
Dew Point 35 °F    
Average Humidity 73    
Maximum Humidity 100    
Minimum Humidity 46    
Precipitation  
Precipitation 0.22 in 0.09 in 1.29 in (1944)
Month to date precipitation 1.28 0.28  
Year to date precipitation 29.52 33.60  
Sea Level Pressure  
Sea Level Pressure 30.12 in    
Wind  
Wind Speed 17 mph (North)    
Max Wind Speed 30 mph    
Max Gust Speed 37 mph    
Visibility 9 miles    
Events Rain    
T = Trace of Precipitation, MM = Missing Value Source: NWS Daily Summary

Daily Weather History Graph

Daily Weather History Graph

Search for Another Location

Airport or City:

Trip Planner

Search our weather history database for the weather conditions in past years. The results will help you decide how hot, cold, wet, or windy it might be!

Date:

Astronomy

Nov. 03, 2011 Rise Set
Actual Time 7:42 AM CDT 6:03 PM CDT
Civil Twilight 7:14 AM CDT 6:31 PM CDT
Nautical Twilight 6:41 AM CDT 7:04 PM CDT
Astronomical Twilight 6:09 AM CDT 7:36 PM CDT
Moon 2:30 PM CDT (11/3) 12:52 AM CDT (11/3)
Length of Visible Light 11h 17m
Length of Day
10h 20m
First Quarter, 60% of the Moon is Illuminated
Nov 3
First Quarter
Nov 10
Full
Nov 18
Last Quarter
Nov 25
New
Dec 2
First Quarter

Hourly Weather History & Observations

Time (CDT) Temp. Windchill Dew Point Humidity Pressure Visibility Wind Dir Wind Speed Gust Speed Precip Events Conditions
12:28 AM 37.4 °F 26.6 °F 35.6 °F 93% 30.05 in 10.0 mi NNE 21.9 mph 27.6 mph 0.01 in Rain Light Rain
12:53 AM 39.0 °F 29.6 °F 36.0 °F 89% 30.06 in 10.0 mi NNE 18.4 mph 29.9 mph 0.02 in Rain Light Rain
1:53 AM 39.0 °F 30.3 °F 37.0 °F 93% 30.07 in 10.0 mi NNE 16.1 mph - 0.00 in Rain Light Rain
2:48 AM 39.2 °F 29.6 °F 37.4 °F 93% 30.00 in 10.0 mi North 19.6 mph - N/A Rain Light Rain
2:53 AM 39.0 °F 29.0 °F 37.9 °F 96% 30.00 in 10.0 mi North 20.7 mph - 0.01 in   Overcast
3:53 AM 39.9 °F 30.5 °F 37.9 °F 93% 30.02 in 9.0 mi North 19.6 mph 27.6 mph 0.00 in Rain Light Rain
4:53 AM 39.9 °F 30.8 °F 39.0 °F 97% 30.03 in 3.0 mi North 18.4 mph - 0.04 in Rain Rain
5:12 AM 39.2 °F 28.7 °F 37.4 °F 93% 30.02 in 6.0 mi North 23.0 mph 27.6 mph 0.02 in Rain Light Rain
5:39 AM 39.2 °F 28.7 °F 37.4 °F 93% 30.03 in 6.0 mi North 23.0 mph 29.9 mph 0.05 in Rain Light Rain
5:53 AM 39.9 °F 29.7 °F 37.9 °F 93% 30.05 in 7.0 mi North 23.0 mph 31.1 mph 0.06 in Rain Light Rain
6:23 AM 39.2 °F 29.0 °F 37.4 °F 93% 30.04 in 10.0 mi North 21.9 mph 32.2 mph 0.00 in Rain Light Rain
6:51 AM 39.2 °F 27.6 °F 37.4 °F 93% 30.03 in 10.0 mi North 28.8 mph 35.7 mph 0.01 in Rain Light Rain
6:53 AM 39.9 °F 29.2 °F 37.9 °F 93% 30.05 in 10.0 mi North 25.3 mph 33.4 mph 0.01 in Rain Light Rain
7:53 AM 39.9 °F 29.0 °F 37.0 °F 89% 30.09 in 5.0 mi NNW 26.5 mph 33.4 mph 0.04 in Rain Rain
8:53 AM 39.9 °F 29.5 °F 36.0 °F 86% 30.14 in 10.0 mi North 24.2 mph 31.1 mph 0.04 in Rain Light Rain
9:18 AM 39.2 °F 28.5 °F 35.6 °F 87% 30.13 in 10.0 mi North 24.2 mph 31.1 mph 0.02 in Rain Light Rain
9:53 AM 39.9 °F 30.2 °F 35.1 °F 83% 30.15 in 10.0 mi North 20.7 mph 32.2 mph 0.02 in   Overcast
10:03 AM 41.0 °F 31.1 °F 35.6 °F 81% 30.13 in 10.0 mi North 23.0 mph 28.8 mph N/A   Overcast
10:31 AM 41.0 °F 31.4 °F 35.6 °F 81% 30.13 in 10.0 mi North 21.9 mph 31.1 mph N/A   Overcast
10:53 AM 42.1 °F 32.8 °F 35.1 °F 76% 30.16 in 10.0 mi North 21.9 mph 32.2 mph N/A   Mostly Cloudy
11:53 AM 43.0 °F 34.0 °F 35.1 °F 74% 30.16 in 10.0 mi NNE 21.9 mph 28.8 mph N/A   Overcast
12:53 PM 46.0 °F 38.3 °F 35.1 °F 66% 30.14 in 10.0 mi NNE 20.7 mph 27.6 mph N/A   Clear
1:53 PM 48.9 °F - 33.1 °F 54% 30.14 in 10.0 mi North 24.2 mph 31.1 mph N/A   Clear
2:53 PM 50.0 °F - 32.0 °F 50% 30.15 in 10.0 mi North 17.3 mph 26.5 mph N/A   Clear
3:53 PM 50.0 °F - 30.9 °F 48% 30.15 in 10.0 mi North 17.3 mph 25.3 mph N/A   Clear
4:53 PM 50.0 °F - 32.0 °F 50% 30.18 in 10.0 mi North 17.3 mph - N/A   Clear
5:53 PM 46.0 °F 40.6 °F 30.9 °F 56% 30.20 in 10.0 mi North 11.5 mph - N/A   Clear
6:53 PM 42.1 °F 36.6 °F 32.0 °F 67% 30.22 in 10.0 mi North 9.2 mph - N/A   Clear
7:53 PM 36.0 °F 30.3 °F 30.0 °F 79% 30.24 in 10.0 mi NNW 6.9 mph - N/A   Clear
8:53 PM 35.1 °F 28.6 °F 28.9 °F 78% 30.25 in 10.0 mi NNW 8.1 mph - N/A   Clear
9:53 PM 34.0 °F 27.2 °F 28.9 °F 82% 30.26 in 10.0 mi North 8.1 mph - N/A   Clear
10:53 PM 35.1 °F 27.9 °F 30.0 °F 82% 30.26 in 10.0 mi North 9.2 mph - N/A   Clear
11:53 PM 35.6 °F 30.7 °F 28.4 °F 75% 30.25 in 10.0 mi North 5.8 mph - N/A   Clear